Temperature
11 11 11 11 11 11 11 10 10 10 11 12 12 13 13 13 13 13 13 14 14 14 14 14 15 15 15 15 15 15 15 16 16 16 16 16 16 16
11 11 11 11 11 11 11 10 10 10 10 11 11 12 12 12 12 13 13 13 13 13 14 14 14 14 14 15 15 15 15 15 16 16 16 16 16 16
11 11 11 11 11 10 10 10 10 10 10 11 11 11 11 12 12 12 12 13 13 13 13 13 14 14 14 14 14 15 15 15 15 15 16 16 16 16
11 11 11 11 11 10 10 10 10 10 10 10 11 11 11 11 11 12 12 12 12 13 13 13 13 13 14 14 14 14 14 15 15 15 15 16 16 16
11 11 11 10 10 10 10 10 10 10 10 10 10 11 11 11 11 11 12 12 12 12 12 12 13 13 13 14 14 14 14 15 15 15 15 15 15 15
11 10 10 10 10 10 10 10 10 10 10 10 10 10 10 11 11 11 11 11 12 12 12 12 12 13 13 13 13 14 14 14 15 15 15 15 15 15
11 10 10 10 10 10 10 10 9 9 9 9 9 10 10 10 10 10 10 11 11 11 12 12 12 12 13 13 13 13 14 14 14 14 15 15 15 15
11 11 10 10 10 10 10 9 9 9 9 9 9 9 10 10 10 10 10 10 10 11 11 12 12 12 12 13 13 13 13 14 14 14 14 15 15 15
11 10 10 10 10 10 9 9 9 9 9 9 9 9 9 10 10 9 10 10 10 10 10 11 11 12 12 12 13 13 13 13 14 14 14 14 14 15
11 10 10 10 10 9 9 9 9 9 9 9 9 9 9 9 9 9 9 9 10 10 10 10 11 11 12 12 12 13 13 13 13 14 14 14 14 14
11 10 10 10 10 9 9 9 9 9 9 9 9 9 9 9 9 9 9 9 9 10 10 10 10 11 11 12 12 12 13 13 13 13 14 14 14 14
11 11 10 10 10 9 9 9 9 9 9 9 9 9 9 9 9 8 9 8 9 9 10 10 10 10 11 12 12 12 12 13 13 13 13 14 14 14
11 11 10 10 9 9 9 9 9 8 8 8 8 8 9 9 9 9 9 8 8 9 9 9 9 10 10 10 11 12 12 12 12 13 13 13 13 13
11 11 10 10 9 9 9 9 8 8 8 8 8 8 8 9 9 9 9 8 8 9 9 9 9 9 9 9 10 11 11 12 12 12 12 13 13 13
11 11 10 10 9 9 9 9 8 8 8 8 8 8 8 8 8 8 8 8 8 9 9 9 9 9 9 9 10 10 11 11 11 12 12 12 13 13
11 11 10 10 9 9 9 9 8 8 8 8 8 8 8 8 8 8 8 8 8 8 9 9 9 9 9 9 9 10 10 10 11 11 11 12 12 12
11 10 10 10 10 9 9 9 9 8 8 8 8 8 8 8 8 8 8 8 8 8 9 9 9 9 9 9 9 10 10 10 11 11 11 11 12 12
10 10 10 10 9 9 9 9 9 8 8 8 8 8 8 8 8 8 8 8 8 8 8 9 9 9 9 9 9 9 10 10 11 11 11 11 11 12
10 10 10 10 9 9 9 9 9 9 8 8 8 8 8 8 8 8 8 8 8 8 8 9 9 8 8 8 9 10 10 10 10 10 11 11 11 12
10 10 10 10 9 9 9 9 9 9 8 8 8 8 8 8 8 8 8 8 8 8 8 8 8 9 9 9 9 10 10 10 10 10 11 11 11 11
10 10 10 10 9 9 9 9 8 8 8 8 8 8 8 8 8 8 8 8 8 8 8 8 9 9 9 9 9 9 10 10 10 10 10 10 10 11
10 10 10 9 9 9 9 8 8 8 8 8 8 8 8 8 8 8 8 8 8 8 8 8 9 9 8 8 9 9 9 10 10 10 10 10 10 10
10 10 9 9 9 9 8 8 8 8 8 8 8 8 8 8 8 8 8 8 8 8 8 8 8 8 8 9 9 9 9 9 9 9 9 10 10 10
Wind_Speed
5 5 4 4 4 4 4 4 3 4 5 5 4 4 7 8 9 8 8 9 10 11 13 15 16 18 20 22 24 27 29 31 32 32 33 33 32 32
5 5 5 5 5 4 4 4 4 5 5 4 4 5 5 7 10 9 10 12 12 12 13 15 16 17 19 20 21 23 26 29 31 32 33 33 33 32
6 6 7 6 5 5 5 4 4 4 6 5 4 4 4 6 7 9 11 11 12 14 15 17 18 19 20 21 21 22 24 27 30 31 32 33 33 33
7 6 7 6 6 6 5 6 6 6 6 7 5 4 5 6 6 7 7 10 11 14 16 17 18 19 20 21 22 22 24 26 28 30 31 32 32 33
7 7 8 7 7 6 6 6 6 6 5 5 6 4 4 4 5 6 6 5 9 12 14 16 17 18 20 21 22 22 23 25 26 28 30 31 32 32
7 7 7 7 8 8 7 7 7 6 5 5 6 5 5 5 3 4 5 4 5 6 8 9 10 13 16 19 21 22 23 24 25 27 28 29 30 31
7 7 7 9 11 9 7 7 7 6 6 5 6 4 5 4 4 3 4 5 5 4 3 4 4 5 8 13 16 20 22 23 25 26 27 28 29 30
7 7 8 9 11 12 13 12 10 8 8 7 6 7 7 6 5 4 4 3 4 3 2 4 3 5 5 8 12 16 20 22 24 25 27 28 28 29
8 7 8 8 9 8 9 11 11 13 13 9 9 10 9 7 6 6 5 5 6 5 2 5 4 5 5 9 13 14 17 19 22 24 25 26 27 28
9 9 9 9 9 9 8 8 9 9 10 9 9 11 11 9 8 8 8 6 6 5 4 5 5 5 5 6 12 14 15 17 19 21 23 24 26 27
9 9 9 9 12 13 9 9 9 9 11 13 14 13 15 14 10 5 5 5 6 5 4 4 4 4 4 5 8 12 14 15 17 19 20 22 24 24
8 8 11 11 12 11 7 7 9 9 8 8 8 9 9 10 12 10 8 7 6 5 5 5 4 3 4 4 4 5 7 10 13 16 18 19 20 16
7 7 8 11 12 12 9 8 11 10 7 7 7 7 7 7 8 8 9 9 9 8 6 5 4 4 4 3 3 3 4 3 4 7 14 17 20 17
9 8 8 12 13 12 9 11 14 10 6 6 7 8 8 8 8 8 9 10 11 12 9 7 6 5 5 4 4 3 3 3 4 5 5 11 16 19
9 11 12 13 12 10 13 15 12 7 6 7 9 10 9 9 7 6 7 8 9 11 12 10 9 7 6 6 5 4 3 3 5 5 5 6 7 8
8 9 11 12 10 11 11 9 8 8 8 9 8 9 7 6 7 6 6 6 6 7 8 11 10 10 8 8 7 6 5 4 4 5 5 5 6 8
4 3 4 4 5 6 7 8 7 7 9 9 9 9 8 8 8 6 6 5 6 6 6 5 7 8 9 8 7 8 7 6 5 5 5 5 6 8
5 4 6 7 8 8 8 8 7 8 9 9 9 9 9 9 8 7 6 7 8 8 7 6 5 4 3 6 9 8 7 7 6 6 6 6 7 7
6 7 8 9 9 8 8 8 8 8 8 8 9 9 9 9 8 8 7 7 8 8 7 6 6 7 8 8 6 10 9 7 6 7 7 6 6 7
8 9 9 9 9 9 9 8 8 8 7 7 8 9 8 8 8 8 8 8 8 8 7 6 7 9 10 8 5 5 11 9 8 8 6 4 2 3
9 9 10 9 9 9 8 8 8 8 8 7 7 8 8 8 9 9 8 11 9 7 8 8 9 11 6 4 4 4 4 8 8 6 6 5 4 4
9 9 9 9 8 8 7 7 7 7 8 7 8 8 7 8 9 10 9 8 8 8 9 7 6 6 6 7 8 6 5 3 2 5 4 3 4 7
8 8 8 7 7 6 6 7 8 7 7 7 7 7 7 7 7 8 8 8 8 8 7 6 5 5 7 8 7 6 7 7 5 4 2 6 1 2
Wind_Direction
250 250 244 250 242 230 214 196 208 274 289 281 289 300 311 305 300 294 281 274 265 259 254 251 248 244 240 235 231 228 226 223 220 219 218 218 218 219
246 249 251 249 251 247 238 225 203 213 255 264 262 277 296 301 300 293 281 276 269 261 256 253 251 249 244 239 235 233 230 226 222 219 218 218 217 217
258 250 253 251 249 251 246 242 234 212 249 271 257 273 283 290 297 294 287 276 269 264 258 254 249 247 245 242 239 237 233 228 223 220 219 218 217 217
252 252 257 259 250 247 244 244 243 231 233 266 276 275 272 277 279 283 282 277 266 266 262 256 252 247 245 243 241 238 236 231 225 222 220 218 218 218
243 243 251 253 256 253 247 246 246 249 228 241 265 263 270 275 286 289 287 283 278 273 266 260 255 251 248 245 243 240 237 233 228 224 222 219 218 218
242 241 244 243 247 250 252 246 244 247 242 243 257 265 267 272 273 280 295 292 290 285 271 265 262 260 255 251 246 242 238 234 231 227 224 221 220 219
249 247 247 249 249 248 249 241 239 240 241 242 251 261 265 270 266 260 274 287 287 267 278 275 267 266 265 259 251 244 239 235 231 228 226 224 222 221
249 255 259 262 264 264 264 257 238 232 233 236 244 244 252 248 250 255 262 282 290 278 271 285 272 267 262 257 256 248 240 235 231 228 226 224 223 222
242 251 264 265 264 262 267 270 264 252 236 229 235 242 246 240 237 250 247 244 250 255 262 277 272 266 260 260 259 252 245 239 233 229 226 224 223 222
240 241 248 260 264 256 258 264 260 260 251 240 233 240 242 239 228 234 243 253 259 254 216 254 264 261 268 261 261 253 249 243 236 230 226 224 222 221
247 246 244 251 260 260 255 258 265 268 266 252 241 242 245 245 236 233 239 243 263 263 215 222 251 260 264 262 258 255 250 246 239 232 227 224 222 220
254 252 248 250 258 260 241 241 255 263 267 274 270 264 257 254 245 227 224 230 241 258 229 208 236 233 268 259 249 250 246 244 240 235 228 222 216 212
248 251 249 252 256 254 240 230 243 252 258 258 263 267 266 258 249 233 224 222 228 239 228 195 217 213 232 271 280 251 232 228 228 234 228 219 210 203
240 244 246 251 252 253 251 245 251 257 252 254 259 262 262 260 255 244 232 228 229 235 228 203 215 219 227 246 260 266 244 228 219 224 217 212 212 210
239 241 245 254 258 258 254 254 255 247 240 248 254 257 254 252 252 253 249 239 238 241 238 217 216 222 219 232 243 244 252 245 219 217 214 209 204 200
244 252 257 260 257 254 259 261 246 235 234 244 251 255 254 250 249 243 245 242 244 253 241 226 218 217 226 229 231 237 226 227 220 213 212 214 206 201
214 241 251 257 259 258 257 255 248 240 240 243 247 253 253 251 250 239 232 231 233 245 252 240 226 221 218 213 224 232 230 231 224 208 208 222 220 208
178 229 244 247 250 255 258 261 253 246 243 241 242 245 248 248 250 243 230 228 235 239 240 234 215 211 227 238 220 224 225 227 220 206 205 219 223 210
200 234 243 247 249 250 250 253 257 253 244 240 242 243 244 244 243 242 236 233 236 237 236 224 208 207 224 237 234 211 212 215 208 211 211 213 219 206
224 234 241 244 244 246 248 250 254 256 249 245 244 244 241 239 239 239 235 232 234 235 237 226 215 213 219 226 220 218 204 203 205 213 210 200 198 170
228 234 240 242 244 244 245 247 249 251 251 246 245 244 241 236 239 238 235 233 230 231 234 235 230 217 212 189 204 218 209 204 202 201 190 184 184 181
236 237 240 241 243 244 246 248 251 252 251 248 247 246 241 235 237 238 234 231 229 229 234 237 224 200 193 206 216 212 196 169 137 112 121 147 181 190
235 238 241 242 243 245 247 250 252 255 253 253 252 250 244 239 237 235 234 230 227 227 227 227 214 201 206 207 206 200 188 179 169 148 75 17 28 155
Height
1529 1528 1528 1528 1527 1527 1527 1527 1526 1523 1521 1521 1522 1522 1522 1522 1522 1522 1522 1522 1522 1522 1523 1524 1525 1527 1529 1532 1535 1538 1542 1546 1550 1554 1558 1562 1566 1569
1526 1525 1524 1524 1524 1523 1523 1523 1522 1521 1518 1517 1518 1518 1518 1518 1518 1517 1517 1517 1517 1517 1517 1517 1519 1520 1522 1524 1527 1530 1533 1537 1541 1546 1550 1554 1558 1562
1522 1521 1520 1520 1519 1519 1519 1518 1518 1517 1514 1513 1513 1513 1513 1513 1513 1513 1512 1512 1512 1512 1512 1512 1512 1513 1515 1516 1519 1521 1525 1528 1533 1537 1541 1546 1550 1554
1518 1517 1516 1516 1515 1514 1514 1513 1513 1512 1511 1508 1508 1508 1508 1508 1507 1507 1507 1507 1506 1506 1506 1506 1506 1507 1508 1510 1511 1513 1516 1520 1524 1528 1533 1537 1542 1546
1514 1513 1512 1511 1510 1509 1508 1508 1507 1507 1506 1504 1502 1502 1502 1502 1502 1501 1501 1501 1500 1500 1500 1500 1500 1501 1501 1503 1504 1506 1508 1511 1515 1519 1523 1528 1533 1537
1509 1508 1507 1506 1504 1503 1502 1502 1501 1501 1500 1499 1498 1497 1497 1497 1497 1496 1495 1495 1495 1495 1495 1494 1495 1495 1495 1496 1497 1499 1501 1503 1506 1510 1514 1519 1524 1528
1504 1503 1502 1500 1499 1498 1497 1496 1495 1495 1494 1493 1493 1492 1492 1491 1491 1491 1490 1489 1489 1489 1489 1489 1489 1489 1489 1490 1490 1492 1494 1496 1499 1502 1506 1510 1514 1519
1499 1498 1496 1495 1493 1492 1491 1490 1489 1489 1488 1487 1487 1486 1486 1486 1486 1485 1485 1484 1483 1485 1484 1483 1483 1482 1483 1484 1484 1485 1487 1488 1491 1494 1497 1501 1506 1510
1494 1492 1490 1489 1488 1486 1485 1484 1483 1483 1483 1482 1480 1480 1480 1480 1480 1480 1479 1479 1478 1478 1478 1476 1477 1477 1477 1478 1478 1479 1480 1481 1483 1486 1489 1493 1497 1501
1488 1487 1485 1483 1482 1480 1479 1478 1477 1476 1476 1475 1474 1474 1474 1474 1474 1474 1473 1472 1472 1472 1473 1471 1471 1471 1471 1471 1472 1473 1473 1474 1476 1478 1481 1485 1489 1493
1483 1481 1479 1478 1476 1475 1473 1471 1470 1470 1470 1469 1468 1467 1467 1467 1467 1467 1466 1466 1464 1465 1467 1466 1464 1465 1464 1464 1465 1466 1467 1468 1469 1471 1474 1478 1482 1485
1477 1475 1474 1472 1470 1469 1467 1466 1464 1463 1463 1462 1461 1461 1460 1460 1460 1460 1460 1459 1458 1457 1459 1460 1460 1460 1458 1458 1459 1459 1460 1461 1463 1464 1467 1470 1474 1477
1470 1469 1468 1466 1464 1463 1461 1460 1458 1457 1456 1455 1454 1453 1453 1452 1452 1452 1452 1452 1452 1451 1453 1455 1454 1454 1454 1453 1453 1454 1454 1455 1456 1458 1460 1463 1467 1470
1464 1462 1461 1460 1458 1456 1455 1453 1452 1451 1449 1447 1446 1445 1445 1444 1444 1444 1444 1444 1444 1445 1446 1448 1448 1449 1449 1448 1448 1448 1449 1450 1451 1452 1454 1456 1460 1463
1458 1456 1455 1453 1451 1449 1448 1447 1446 1444 1442 1440 1438 1437 1437 1437 1436 1436 1436 1437 1437 1437 1439 1440 1441 1442 1443 1442 1442 1443 1444 1445 1446 1447 1448 1450 1453 1456
1451 1449 1448 1446 1444 1443 1441 1440 1438 1437 1435 1433 1431 1430 1430 1429 1429 1429 1429 1429 1429 1430 1431 1433 1434 1435 1435 1436 1437 1437 1439 1440 1441 1442 1444 1445 1447 1450
1444 1443 1441 1439 1437 1436 1434 1432 1431 1430 1428 1426 1425 1423 1422 1422 1421 1422 1422 1422 1422 1423 1424 1426 1427 1428 1429 1430 1431 1432 1433 1434 1436 1438 1439 1440 1442 1444
1437 1435 1434 1432 1430 1428 1427 1425 1424 1422 1421 1419 1418 1417 1415 1415 1414 1415 1415 1415 1415 1416 1417 1419 1421 1422 1423 1423 1425 1425 1427 1429 1431 1433 1434 1435 1436 1439
1429 1428 1426 1425 1423 1421 1420 1418 1416 1415 1414 1412 1411 1410 1409 1408 1407 1407 1407 1408 1408 1409 1410 1412 1414 1415 1416 1416 1417 1420 1422 1423 1425 1427 1429 1430 1432 1434
1421 1420 1419 1417 1416 1414 1413 1411 1410 1408 1407 1406 1404 1403 1402 1401 1400 1400 1400 1401 1401 1402 1403 1405 1406 1408 1409 1411 1412 1414 1416 1418 1420 1421 1423 1425 1428 1430
1414 1412 1411 1410 1408 1407 1405 1404 1403 1401 1400 1398 1397 1396 1395 1395 1394 1393 1393 1394 1394 1395 1396 1397 1399 1402 1404 1406 1407 1407 1410 1412 1414 1416 1419 1421 1423 1425
1406 1405 1404 1403 1401 1400 1398 1397 1396 1394 1393 1391 1390 1389 1389 1388 1387 1387 1387 1387 1387 1388 1389 1391 1393 1396 1397 1399 1400 1402 1405 1407 1409 1411 1414 1416 1417 1420
1399 1398 1397 1396 1395 1393 1392 1390 1389 1387 1386 1385 1384 1383 1382 1381 1381 1380 1380 1380 1381 1382 1383 1385 1387 1388 1390 1393 1395 1397 1400 1402 1404 1407 1409 1411 1414 1417